This is the latest recevied weather packets stored in our database for station/object ea1bqo-1. If no packets are shown the sender has not sent any weather packets the latest 10 day(s).
| Time | Temp. | Humidity | Pressure | Rain* | Wind** | Luminosity | Snow |
|---|---|---|---|---|---|---|---|
| 1787831936 | 15.56° C | 84% | 1007.5 hPa | 0.51 mm | - | - | - |
| 1787831396 | 15.56° C | 88% | 1007.1 hPa | 0.25 mm | - | - | - |
| 1787830856 | 15.56° C | 87% | 1007 hPa | 0.25 mm | - | - | - |
| 1787830316 | 15.56° C | 86% | 1006.9 hPa | 0.51 mm | - | - | - |
| 1787829776 | 16.11° C | 86% | 1006.9 hPa | 0.51 mm | - | - | - |
| 1787829236 | 16.11° C | 88% | 1006.9 hPa | 0.51 mm | - | - | - |
| 1787828696 | 15.56° C | 89% | 1007 hPa | 0.51 mm | - | - | - |
| 1787828156 | 15° C | 89% | 1006.9 hPa | 0.51 mm | - | - | - |
| 1787827616 | 15° C | 89% | 1007.1 hPa | 0.25 mm | - | - | - |
| 1787827076 | 15° C | 88% | 1007.4 hPa | 0 mm | - | - | - |
| 1787826536 | 15° C | 88% | 1007.4 hPa | 0 mm | - | - | - |
| 1787825996 | 15° C | 88% | 1007.5 hPa | 0 mm | - | - | - |
| 1787825456 | 15° C | 89% | 1007.4 hPa | 0 mm | - | - | - |
| 1787824916 | 15° C | 89% | 1007.3 hPa | 0 mm | - | - | - |
| 1787824376 | 15° C | 91% | 1007.4 hPa | 0 mm | - | - | - |
| 1787823836 | 14.44° C | 92% | 1007.4 hPa | 0 mm | - | - | - |
| 1787823296 | 14.44° C | 91% | 1007.1 hPa | 0 mm | - | - | - |
| 1787822756 | 14.44° C | 91% | 1007.3 hPa | 0 mm | - | - | - |
| 1787822216 | 14.44° C | 92% | 1007.4 hPa | 0 mm | - | - | - |
| 1787821676 | 14.44° C | 93% | 1007.4 hPa | 0 mm | - | - | - |
| 1787821136 | 14.44° C | 96% | 1007.4 hPa | 0 mm | - | - | - |
| 1787820596 | 14.44° C | 98% | 1007.3 hPa | 0.25 mm | - | - | - |
| 1787820056 | 14.44° C | 99% | 1007.1 hPa | 0.25 mm | - | - | - |
| 1787811956 | 13.33° C | 99% | 1006.9 hPa | 0 mm | - | - | - |
| 1787811416 | 12.78° C | 99% | 1006.9 hPa | 0 mm | - | - | - |
* Rain latest hour (hover to see other rain measurements)
** Current wind speed in m/s (hover to see current wind gust speed)